Flag for Greece Weather past 2 weeks in Thessaloniki, Greece

Now
77 °F

Thunderstorms. Mostly cloudy.


Feels Like: 79 °F
Forecast: 63 / 77 °F
Wind: 12 mph from West

Location: Thessaloniki Airport

Current Time: Jun 30, 2015 at 6:25:09 PM

Latest Report: Jun 30, 2015 at 5:20 PM


Visibility: N/A

Pressure: 30.04 "Hg

Humidity: 54%

Dew point: 59 °F

Location of ThessalonikiLocation

Historic Weather in Thessaloniki — Graph

°F

Thessaloniki temperature yesterday

Maximum temperature yesterday: 84 °F (at 1:20 PM)
Minimum temperature yesterday: 66 °F (at 4:50 AM)
Average temperature yesterday: 75 °F

Past Weeks' High & Low Weather Summary

 TemperatureHumidityPressure
High93 °F (Jun 15, 4:20 PM)94% (Jun 18, 5:50 PM)30.04 "Hg (Jun 18, 5:50 PM)
Low59 °F (Jun 24, 5:50 AM)23% (Jun 16, 2:50 PM)29.71 "Hg (Jun 17, 3:20 PM)
Average74 °F55%29.88 "Hg
* Reported Jun 15 4:20 PM — Jun 30 4:50 PM, Thessaloniki, Weather by CustomWeather, © 2015

Note: Actual official high and low records may vary slightly from our data, if they occured in-between our weather recording intervals... More about our weather records

Advertising

Thessaloniki weather history for previous 24 hours

 ConditionsComfort  
Time TempWeatherWind HumidityBarometerVisibility
4:50 PM
Tue, Jun 30
79 °FPartly sunny.9 mph54%30.04 "HgN/A
3:50 PM79 °FBroken clouds.3 mph45%30.01 "HgN/A
3:20 PM77 °FBroken clouds.9 mph51%30.01 "HgN/A
2:50 PM73 °FPartly sunny.13 mph61%30.01 "HgN/A
2:20 PM73 °FPartly sunny.15 mph65%30.01 "HgN/A
1:50 PM73 °FThunderstorms. Broken clouds.10 mph57%30.04 "HgN/A
1:20 PM73 °FBroken clouds.12 mph57%30.01 "HgN/A
12:50 PM75 °FThunderstorms. Broken clouds.12 mph54%30.01 "HgN/A
12:20 PM79 °FThunderstorms. Broken clouds.5 mph48%30.01 "HgN/A
11:50 AM79 °FThunderstorms. Broken clouds.7 mph51%30.01 "HgN/A
11:20 AM79 °FThunderstorms. Broken clouds.8 mph51%30.01 "HgN/A
10:50 AM79 °FBroken clouds.7 mph51%30.01 "HgN/A
10:20 AM77 °FScattered clouds.9 mph54%30.01 "HgN/A
9:50 AM75 °FScattered clouds.5 mph61%30.01 "HgN/A
9:20 AM77 °FScattered clouds.No wind57%30.01 "HgN/A
8:50 AM73 °FScattered clouds.2 mph69%30.01 "HgN/A
8:20 AM72 °FScattered clouds.No wind69%30.01 "HgN/A
7:50 AM72 °FPartly sunny.No wind69%29.98 "HgN/A
7:20 AM68 °FPartly sunny.No wind78%30.01 "HgN/A
6:50 AM66 °FPassing clouds.2 mph83%30.01 "HgN/A
6:20 AM66 °FPassing clouds.3 mph83%30.01 "HgN/A
5:50 AM64 °FPartly cloudy.No wind83%30.01 "HgN/A
5:20 AM66 °FPartly cloudy.No wind78%30.01 "HgN/A
4:50 AM68 °FPartly cloudy.No wind73%30.01 "HgN/A
4:20 AM66 °FPartly cloudy.No wind78%30.01 "HgN/A
3:50 AM66 °FPartly cloudy.No wind78%30.01 "HgN/A
3:20 AM68 °FPartly cloudy.3 mph78%30.01 "HgN/A
2:50 AM68 °FPartly cloudy.2 mph78%30.01 "HgN/A
2:20 AM68 °FPartly cloudy.5 mph78%30.01 "HgN/A
1:50 AM68 °FPassing clouds.5 mph78%30.01 "HgN/A
1:20 AM68 °FPassing clouds.3 mph73%30.04 "HgN/A
12:50 AM68 °FPassing clouds.3 mph73%30.04 "HgN/A
12:20 AM70 °FPassing clouds.5 mph69%30.04 "HgN/A
11:50 PM
Mon, Jun 29
70 °FPassing clouds.3 mph64%30.04 "HgN/A
11:20 PM70 °FPartly cloudy.3 mph64%30.04 "HgN/A
10:50 PM72 °FPartly cloudy.3 mph61%30.01 "HgN/A
10:20 PM75 °FPartly cloudy.5 mph50%30.01 "HgN/A
9:50 PM77 °FBroken clouds.7 mph47%30.01 "HgN/A
9:20 PM77 °FBroken clouds.5 mph47%30.01 "HgN/A
8:50 PM77 °FBroken clouds.3 mph54%29.98 "HgN/A
8:20 PM79 °FBroken clouds.3 mph48%29.98 "HgN/A
7:50 PM77 °FPartly sunny.5 mph61%29.98 "HgN/A
7:20 PM77 °FBroken clouds.3 mph57%29.98 "HgN/A
6:50 PM79 °FBroken clouds.10 mph51%29.98 "HgN/A
6:20 PM79 °FBroken clouds.7 mph48%29.98 "HgN/A
Weather by CustomWeather, © 2015

See weather overviewHow to use our weather pages